Theta_e
300 300 300 300 300 300 300 301 300 301 301 301 301 302 302 303 303 303 303 303 304 304 304 303 302 301 300 300 299 299 298 297 296 296 296 296 296 296 296 297 297 297
300 300 300 300 300 299 300 300 300 300 300 300 300 301 301 301 302 302 302 302 303 303 303 303 302 301 300 300 299 299 298 298 296 295 295 296 295 296 296 296 296 297
302 302 301 301 300 300 299 299 300 300 300 300 300 300 300 300 301 301 301 302 302 302 302 302 302 302 301 300 299 299 299 299 298 296 295 295 295 295 296 296 296 296
302 302 302 302 301 301 300 300 300 300 299 300 300 300 300 300 299 300 300 301 302 302 302 302 302 302 302 301 300 299 299 299 299 297 296 295 295 295 295 295 295 296
300 301 301 302 302 302 301 301 301 300 299 299 299 299 300 300 299 299 299 300 300 301 301 302 301 301 301 301 301 300 300 299 299 298 297 296 295 295 295 295 295 295
298 299 299 300 300 301 301 302 302 301 301 300 299 298 298 299 299 299 299 299 299 300 300 301 301 301 301 301 301 301 301 300 300 299 298 296 295 294 294 294 294 295
297 298 298 298 299 299 300 300 301 301 301 301 300 299 298 297 298 298 299 299 299 299 299 299 300 300 301 301 301 301 301 301 301 300 299 298 296 294 294 294 294 294
298 297 297 298 298 298 298 298 299 300 301 301 301 300 299 298 296 297 297 298 299 299 299 299 299 299 299 300 300 301 301 301 301 301 300 299 297 295 294 294 294 294
297 298 298 298 298 297 297 297 297 298 299 299 300 300 300 299 298 297 296 297 297 298 298 298 298 298 299 299 299 300 300 301 301 301 301 300 299 297 295 294 293 293
294 296 297 297 298 297 297 296 296 296 297 298 299 299 299 299 299 298 297 296 296 296 297 297 298 298 298 298 299 299 299 300 300 301 301 301 300 299 297 295 294 293
293 293 294 295 296 296 296 296 296 295 295 296 297 298 298 298 298 298 298 297 297 296 296 296 296 297 297 297 298 298 299 299 300 300 300 300 300 300 299 298 296 294
291 292 292 292 292 293 294 295 295 295 295 295 295 295 296 297 297 297 298 298 297 297 296 296 295 296 296 296 297 297 298 298 298 299 300 300 300 300 299 299 298 297
289 289 290 290 290 290 291 292 292 293 294 294 294 294 294 295 296 297 297 297 296 296 296 295 295 295 295 295 296 296 296 297 297 298 299 299 299 300 299 298 298 298
287 287 287 288 288 289 289 290 290 291 292 293 293 294 294 294 294 295 296 296 296 295 295 295 294 294 294 294 294 295 295 296 296 297 297 298 298 299 299 298 298 298
287 287 287 287 287 287 288 288 289 289 289 290 291 292 293 293 294 294 294 295 295 295 295 294 293 293 293 293 293 294 294 294 295 295 296 296 297 297 297 297 298 298
287 287 287 287 286 286 287 287 287 288 288 288 288 289 290 291 292 293 293 294 294 294 294 294 294 293 293 292 292 292 293 293 294 294 295 295 296 296 297 297 297 297
286 286 286 286 286 286 286 286 286 286 287 287 287 287 288 288 289 291 292 293 293 293 293 293 294 294 293 291 291 291 292 292 292 293 293 294 295 295 296 297 297 297
286 286 286 286 286 286 286 286 286 286 286 286 286 286 286 287 287 288 289 290 292 293 293 293 293 293 292 291 291 291 291 291 291 292 292 293 294 294 295 295 296 296
286 286 286 286 286 286 286 286 286 286 286 286 286 286 286 286 286 286 286 287 289 291 292 293 294 293 292 291 291 290 290 290 291 291 291 292 293 293 294 294 295 296
286 286 286 286 286 286 286 286 286 286 286 286 286 286 286 286 285 285 285 285 286 287 289 291 293 293 292 292 291 290 290 290 290 290 290 291 292 292 293 293 294 294
285 285 285 285 285 286 286 286 286 286 286 286 286 286 286 286 286 286 285 285 285 285 286 288 291 292 293 292 291 290 289 289 289 290 290 290 290 291 291 292 292 293
285 285 285 285 285 285 285 285 285 286 286 286 286 286 286 286 286 286 285 285 285 285 285 286 287 290 292 292 291 290 289 289 289 289 289 289 290 290 290 291 291 291
284 284 285 285 285 285 285 285 285 285 285 285 285 286 286 286 286 286 285 285 285 285 285 285 286 287 289 292 292 290 289 288 288 288 289 289 289 290 290 290 290 291
284 284 284 284 284 285 285 285 285 285 285 285 285 285 285 286 286 285 285 285 285 285 285 285 285 285 286 289 292 291 289 288 288 288 288 288 289 289 289 290 290 290
283 284 284 284 284 284 284 284 284 285 285 285 285 285 285 285 285 285 285 285 285 285 285 284 285 285 285 286 289 291 291 288 287 287 288 288 288 288 289 289 289 289
283 283 283 284 284 284 284 284 284 284 285 285 284 285 285 285 285 285 285 285 285 285 285 284 284 285 285 285 286 290 291 290 288 287 287 288 288 288 288 288 289 289
Wind_Speed
11 12 14 16 19 22 24 27 29 30 32 32 33 32 30 28 27 28 29 31 37 42 47 52 54 53 53 52 51 50 49 48 49 51 52 52 52 51 51 49 47 46
14 14 14 15 17 19 21 23 25 28 30 32 33 33 33 31 29 29 28 29 32 35 40 45 50 52 52 53 52 51 51 50 50 51 52 52 53 53 52 50 48 47
22 20 18 17 17 17 19 20 22 24 26 29 31 33 33 33 32 32 30 30 30 32 34 39 44 49 52 53 53 53 52 52 51 51 51 52 53 53 53 51 50 49
27 25 24 22 20 19 19 19 20 21 23 25 27 29 32 33 34 34 33 31 31 31 32 35 39 44 49 52 53 53 53 53 51 51 52 53 54 54 54 53 52 52
28 27 26 25 24 23 22 21 20 20 21 22 23 25 28 30 32 34 34 34 33 32 33 34 37 40 44 48 52 53 54 53 52 52 52 53 55 55 56 56 55 54
30 29 28 27 26 25 24 24 23 22 22 22 21 22 25 27 29 31 33 34 34 34 34 35 36 38 41 45 48 51 53 53 53 53 53 54 55 56 57 57 56 56
31 31 31 30 29 28 27 26 26 25 25 25 24 23 23 25 27 29 30 32 33 35 36 37 38 39 40 42 46 49 50 51 52 53 54 54 55 57 58 58 58 58
29 30 30 31 31 31 30 30 28 28 27 27 27 26 25 25 26 28 29 30 31 33 35 37 39 40 41 43 45 47 49 49 50 51 53 55 56 57 58 59 60 60
28 28 28 29 30 30 31 31 30 29 28 28 28 27 27 26 26 26 28 30 31 33 34 36 38 40 42 44 45 47 48 49 48 49 51 54 56 58 59 60 60 61
27 27 27 28 28 28 29 30 30 30 29 29 29 28 27 26 26 26 27 28 31 33 34 36 38 40 42 44 45 47 48 49 48 49 50 51 54 56 58 59 61 62
26 26 27 27 28 27 27 28 29 29 29 29 29 29 29 28 27 26 26 27 29 31 33 35 38 40 42 44 45 47 48 48 48 48 49 50 52 54 56 58 60 62
26 26 27 27 28 28 28 28 28 28 29 29 29 29 30 30 29 28 27 27 27 28 30 33 36 39 42 44 46 47 48 48 48 48 49 50 51 53 55 57 59 61
30 29 28 28 28 29 30 30 29 28 29 29 29 30 30 30 30 29 29 28 28 28 28 29 32 36 40 43 46 47 48 48 48 49 49 50 51 52 53 56 59 60
35 33 31 30 30 30 30 30 30 30 30 29 30 30 30 30 30 30 30 29 28 29 29 30 31 34 38 41 45 47 48 48 48 48 49 50 52 52 53 55 58 59
37 37 35 34 33 32 32 31 31 32 32 31 31 30 31 31 31 31 31 30 29 29 29 31 33 35 37 39 42 45 47 48 48 48 49 50 52 53 55 56 57 58
37 38 38 37 36 35 35 34 33 33 33 34 34 33 32 32 32 31 31 31 31 30 29 31 33 36 37 38 40 42 44 45 47 48 49 49 51 53 54 56 57 58
36 38 39 40 40 40 39 37 36 35 34 34 35 35 35 35 34 33 32 32 32 32 31 31 33 34 36 38 39 40 42 43 45 47 48 49 51 51 52 54 56 58
35 37 38 40 41 43 43 42 41 39 38 36 35 36 36 37 37 37 36 34 34 34 34 34 33 33 33 36 38 39 40 42 43 45 47 49 51 51 51 51 53 57
36 37 38 39 41 42 44 45 46 45 43 41 39 38 38 37 38 38 38 38 37 36 36 36 35 33 32 34 36 38 39 40 42 44 46 48 50 52 52 51 53 55
38 38 38 39 40 42 44 45 47 48 47 46 45 43 42 41 40 40 40 40 40 39 39 39 37 35 34 33 34 36 37 39 41 43 46 47 49 50 52 53 54 55
39 40 40 40 40 42 43 45 47 49 50 49 49 48 47 45 44 43 43 42 42 41 42 42 40 38 37 35 34 34 35 38 40 43 45 47 48 49 51 54 56 57
40 41 42 42 42 42 43 44 46 49 50 51 52 52 51 50 49 48 47 46 44 43 43 44 42 40 39 38 36 34 34 36 40 42 45 47 48 49 50 53 56 58
42 43 44 45 46 46 46 45 46 48 50 51 53 54 54 54 53 52 51 50 48 46 45 45 44 42 40 40 39 35 34 36 39 42 45 47 48 48 49 52 55 57
45 46 47 47 48 49 50 50 49 49 50 51 53 55 56 57 57 56 55 54 52 50 48 47 46 44 41 40 40 38 35 36 39 41 44 46 47 47 48 50 53 55
49 50 50 51 51 52 52 53 53 53 53 54 54 55 57 58 59 59 59 58 56 54 51 49 48 46 42 40 41 39 36 36 38 40 43 46 46 48 48 49 51 53
54 54 54 54 55 55 55 56 56 56 57 57 57 57 58 59 60 61 62 62 60 57 55 52 50 48 44 42 41 40 38 36 37 40 44 45 45 46 48 49 50 52
Wind_Direction
336 328 321 315 309 305 300 296 294 290 288 287 287 287 286 283 279 275 272 268 265 259 254 250 248 245 244 242 242 241 239 237 235 234 233 231 231 230 230 230 230 230
348 339 327 318 311 309 306 303 300 296 293 290 289 288 287 286 284 280 276 271 268 265 261 256 251 248 246 244 243 242 240 238 237 235 234 233 232 231 231 231 230 230
7 358 346 332 318 310 306 303 300 299 297 295 293 291 289 288 287 284 281 276 272 269 265 260 255 251 248 245 244 243 242 240 239 237 235 234 233 233 233 232 231 230
15 9 1 351 338 324 313 305 301 299 298 297 297 296 294 291 289 285 283 280 276 273 269 264 259 254 250 247 245 244 243 242 241 239 236 235 234 233 233 232 231 230
15 14 10 3 354 343 332 321 311 302 296 295 295 295 295 293 291 288 285 283 280 276 272 269 264 259 254 251 248 246 244 242 241 239 237 236 234 233 233 232 231 230
10 10 11 11 7 360 351 342 330 317 305 297 293 291 291 290 290 289 287 285 283 279 275 272 268 264 259 255 251 249 246 244 242 240 238 237 236 234 233 232 232 231
0 0 1 3 4 4 2 357 348 337 324 311 299 291 288 287 288 287 287 286 285 282 279 275 271 268 264 259 255 252 249 247 244 241 239 238 237 236 235 233 233 232
353 353 353 353 354 357 360 0 358 352 342 330 316 304 295 289 287 287 286 284 283 281 280 278 274 271 267 263 259 256 253 250 247 244 241 239 238 237 236 234 234 233
348 346 346 346 347 349 352 355 356 355 351 344 335 324 311 298 290 287 285 284 282 279 278 276 274 272 269 266 263 259 256 253 250 247 244 241 240 239 237 236 235 234
347 344 342 341 341 344 346 347 350 352 351 349 344 339 330 317 302 291 284 281 280 279 278 276 274 272 270 267 265 262 260 257 254 250 247 245 243 242 240 239 237 236
345 344 342 340 339 338 339 340 341 344 347 348 347 344 341 334 323 308 294 285 279 278 278 278 277 275 272 269 267 264 262 260 258 255 251 249 246 245 243 242 241 239
344 343 342 341 340 337 336 336 336 337 339 342 345 345 343 340 335 326 313 300 290 283 279 278 278 276 274 272 269 267 264 262 259 257 255 252 250 248 246 244 243 243
345 344 343 341 340 339 337 335 334 334 333 334 337 339 341 341 339 335 327 316 304 294 285 280 275 273 273 272 270 268 266 264 261 259 256 255 253 252 249 247 246 244
341 342 343 342 340 337 335 333 333 333 333 332 331 331 334 336 337 337 334 327 317 305 295 286 278 273 270 269 269 269 267 265 263 262 260 257 256 254 252 249 248 246
335 335 336 338 338 336 334 333 332 332 332 333 332 330 328 329 331 333 334 332 326 315 304 293 284 277 272 269 269 269 268 267 265 263 261 259 258 256 254 252 250 249
330 330 330 331 332 333 333 332 331 330 330 331 333 332 330 327 326 326 328 329 327 321 312 300 292 285 279 274 271 269 268 268 266 263 261 259 258 258 256 255 253 251
326 326 326 327 328 329 329 329 330 329 329 329 330 331 331 329 327 325 323 323 323 322 316 306 300 295 287 280 275 271 269 267 265 264 262 260 258 258 257 257 256 255
321 321 322 323 324 325 325 325 326 326 326 327 327 328 328 328 328 327 324 321 319 318 316 311 307 301 292 284 279 275 271 268 265 264 262 260 260 259 258 257 257 257
317 317 318 319 320 321 321 321 321 321 322 323 323 323 324 324 325 325 324 323 320 316 314 312 310 306 298 288 282 277 273 270 266 263 260 260 260 259 259 257 256 256
312 312 313 314 315 316 317 317 318 318 318 319 320 319 319 318 319 321 321 322 321 317 314 310 309 309 305 295 285 280 276 272 268 265 261 259 259 259 258 258 257 256
309 309 309 310 311 312 312 313 314 314 314 315 316 315 315 314 314 315 315 316 316 317 314 310 307 308 308 302 290 282 278 274 269 265 261 259 258 258 258 257 257 257
307 306 306 307 308 308 308 309 309 309 310 311 311 311 311 311 310 310 310 310 311 312 312 310 307 307 307 305 297 285 278 275 269 263 260 258 256 256 257 256 255 256
305 305 304 304 304 304 304 304 304 304 304 305 306 306 306 306 306 306 306 306 306 307 307 307 307 306 305 304 302 293 280 272 268 263 260 259 257 256 256 256 256 255
304 303 302 302 301 301 301 301 300 300 300 300 301 301 301 302 302 302 302 302 302 302 303 304 303 304 304 302 301 298 286 272 267 264 261 260 259 257 256 256 257 255
302 301 300 300 299 298 298 298 298 297 297 296 296 297 297 298 298 299 298 298 298 299 300 300 299 300 302 300 298 298 291 277 266 262 260 258 257 257 256 256 257 256
300 299 298 297 296 295 294 294 294 294 294 293 293 293 294 294 294 295 295 294 295 295 296 296 296 296 298 298 295 293 292 283 269 260 258 257 255 254 254 255 255 255